Погода в Бабушкине

Погода в Бабушкине : погода сейчас, прогноз погоды и архив. Всё, что Вы хотите узнать о погоде в Бабушкине!

Поиск расширенной информации на нашем сайте:

Другие новости

Новости СМИ2

Главная страница сайта

Новости сайта

02.10.2013

Напоминаем, что на нашем новом сайте вы можете получить высокодетализированные прогнозы погоды по пунктам России, СНГ и мира (включающие важные для авиации метеовеличины, такие как направление и скорость ветра, видимость, явления погоды, количество и форма облачности, нижняя и верхняя граница облачности), а также ознакомиться с разнообразными материалами по авиационной метеорологии и подборкой полезных ссылок на эту тему.

Сайт Метеоцентр.Азия посвящён разработке технологий оптимизации авиаметеорологического обслуживания, включая проектирование и перспективное создание нескольких автоматизированных авиаметеорологических систем:
- система выпуска высокодетальных прогностических карт явлений погоды для нижнего воздушного пространства по России и ближнему зарубежью;
- система верификации прогнозов TAF (выпускаемых синоптиками официальных АМСГ РФ и ближнего зарубежья) и AUTOTAF (выпускаемых сайтом Метеоцентр.Азия) - выявление ошибок, онлайн-сопоставление с фактической погодой METAR, автоматическое внесение коррективов в прогнозы при резком отклонении фактической погоды от прогноза, подсчёт оправдываемости прогнозов по элементам и в целом;
- система обработки, анализа и отображения авиаметеорологической информации для применения провайдерами метеорологической информации.

Рекомендуем: укладка плитки под ключ, Стоимость укладки тротуарной плитки Москв

Погода в Бабушкине - сегодня

Время (UTC), дата Ветер
(°,м/с) 
Видим.   Явления Облачность Т
(°С)
Тd
(°С)
f(%) Тe
(°С)
Pmin
(гПа)
dP
(гПа)
Po
(мм)
O2
(г/м3)
Тmin Tmax R s Состояние
почвы
12 25.05.17 240 (ЮЗ) 20000 м    9/0 верхняя 
[Ci sp]
+19.4 +6.3 42 +21  999.9  -1.2  711  266    +28.1       
15 25.05.17 250 (З) 20000 м    9/4 600 м кучево-дожд., верхняя 
[Cb cap|Ci sp]
+14.8 +6 56 +16  1001.6  0.8  711  271           
18 25.05.17 290 (З) 3{11}  20000 м    9/4 600 м кучево-дожд., верхняя 
[Cb cap|Ci sp]
+11.1 +4.7 65 +11  1004  1.6  712  275           
21 25.05.17 290 (З) 7-12{22}  10 км  дым  9/3 600 м средняя, верхняя 
[Sc|Ac trans|Ci sp]
+15 +7.8 62 +14  1008.8  5.1  716  272           
00 26.05.17 290 (З) 7{13}  20000 м    9/4 600 м средняя, верхняя 
[Sc|Ac trans|Ci sp]
+13.7 +8.9 73 +14  1009.8  0.8  717  273  +9.6        сухая 
03 26.05.17 290 (З) 8-11{12}  20000 м    9/6 600 м средняя, верхняя 
[Sc|Ac trans|Ci sp]
+13.3 +8.9 75 +13  1010.6  0.7  717  274           
06 26.05.17 290 (З) 7{11}  20000 м    9/3 600 м средняя, верхняя 
[Sc|Ac trans|Ci sp]
+15 +8.9 67 +15  1009.4  -0.8  717  272           
09 26.05.17 290 (З) 10 км  дым  10/4 600 м кучево-дожд., средняя 
[Cb cap|Ac As]
+14.5 +9 70 +15  1008.8  -0.7  716  272           
12 26.05.17 160 (Ю) 10 км  дым{ливн. осадки}  9/5 600 м кучево-дожд., средняя, верхняя 
[Cb cap|Ac trans|Ci sp]
+13 +9.5 79 +15  1009.7  0.5  717  274    +15.7  0.0     
15 26.05.17 290 (З) 10 км  дым  9/3 600 м кучево-дожд., средняя, верхняя 
[Cb cap|Ac trans|Ci sp]
+11.2 +9.6 90 +13  1010.3  0.2  717  276           
18 26.05.17 290 (З) 10 км  дым  9/1 600 м кучево-дожд., средняя, верхняя 
[Cb cap|Ac trans|Ci sp]
+10.5 +9.9 96 +12  1011.5  718  277           
00 27.05.17 290 (З) 6-11{18}  20000 м  в посл. час ливневой дождь  9/6 600 м кучево-дожд., средняя, верхняя 
[Cb cap|Ac trans|Ci sp]
+8.6 +5.3 80 +7  1019.2  3.4  723  281  +7      влажная 
15 27.05.17 290 (З) 6{11}  20000 м    3/0 верхняя 
[Ci sp]
+7.1 -0.6 58 +5  1025.5  0.5  727  286           
18 27.05.17 290 (З) 20000 м    1/0 верхняя 
[Ci sp]
+7.3 -1.2 55 +6  1025.2  -0.3  727  285           
21 27.05.17 260 (З) 20000 м    3/0 верхняя 
[Ci sp]
-0 -1.4 90 +1  1026.1  -0.6  726  293           
03 28.05.17 320 (СЗ) 20000 м    9/0 средняя, верхняя 
[Ac trans|Ci sp]
+9.3 +0.1 53 +10  1021.8  -1.4  725  282           
06 28.05.17 330 (СЗ) 20000 м    9/0 средняя, верхняя 
[Ac trans|Ci sp]
+9.8 +1.5 56 +11  1018.5  -3  722  281           
09 28.05.17 300 (СЗ) 20000 м    9/0 средняя, верхняя 
[Ac trans|Ci sp]
+9.4 +0.7 55 +9  1016.1  -2.4  721  281           
15 28.05.17 240 (ЮЗ) 20000 м    6/0 средняя, верхняя 
[Ac trans|Ci sp]
+6.9 +2 71 +8  1016.4  721  283           
18 28.05.17 тихо ()   20000 м    4/0 верхняя 
[Ci sp]
+2.2 +0.9 91 +2  1016.5  -0.9  720  288           
21 28.05.17 250 (З) 20000 м    3/1 600 м верхняя 
[Sc|Ci sp]
+4.5 +0.2 74 +4  1016  720  285           
03 29.05.17 190 (Ю) 20000 м    3/0 верхняя 
[Ci fib]
+9.5 +3.7 67 +10  1015.4  -0.4  720  280           
06 29.05.17 210 (ЮЗ) 20000 м    8/0 верхняя 
[Ci sp]
+10.3 +1.3 54 +10  1013.9  -1.3  719  279           
09 29.05.17 310 (СЗ) 20000 м    9/0 верхняя 
[Ci sp]
+9.6 +2.9 63 +10  1011.8  -2.1  718  279           
15 29.05.17 290 (З) 20000 м    9/5 600 м кучево-дожд., средняя, верхняя 
[Cb cap|Ac trans|Ci sp]
+5.6 +2.5 80 +5  1012.4  0.6  718  283           
Время (UTC), дата Ветер
(°,м/с) 
Видим.   Явления Облачность Т
(°С)
Тd
(°С)
f(%) Тe
(°С)
Pmin
(гПа)
dP
(гПа)
Po
(мм)
O2
(г/м3)
Тmin Tmax R s Состояние
почвы

Для получения пояснительной информации подведите курсор к названию столбца.

ПОГОДА в Бабушкине - архив

Всё, что Вы хотите узнать о погоде в Бабушкине - удобно и подробно!

Выберите нужную дату (начиная с 1 января 2015* года) и нажмите кнопку "Найти".
Будут отображены архивные сводки погоды по пункту Бабушкин, начиная с указанной даты.


Отображать данные в формате CSV (для использования в таблицах Excel)


Внимание! Наш архив погоды предназначен исключительно для личного некоммерческого использования в познавательных целях. Если Вам необходимы официальные справки о состоянии погоды (для производственных, юридических, коммерческих и т.п. целей), обращайтесь в органы Росгидромета.

*Примечание: данная дата относится к архиву по метеостанциям СССР (Россия, СНГ, Балтия).
Архив по метеостанциям Зарубежной Европы и Азии (кроме Китая) хранится 10 дней, по другим регионам земного шара (Китай, Африка, Америка, Австралия, Океания) - 1 день.

Бабушкин - район местоположения метеостанции


Название, широта, долгота, высота метеостанции:
Бабушкин 51.7°ш. 105.9°д. 467 м над ур. моря [Российская Федерация]

Дополнительная информация

В oтличие oт бoльшинства пoгoдных сайтoв мы публикуем пoдрoбную метеoинфoрмацию в детальнoм прoфессиoнальнoм фoрмате.

Характеристики температуры и влажнoсти вoздуха измеряются на высoте 2 м в тени вдали oт зданий и деревьев.
Скoрoсть ветра измеряется на высoте 10 м (на урoвне рoста челoвека скoрoсть ветра ниже в 1.5-2 раза). Если метеoстанция нахoдится в гoрoде или в лесу, тo скoрoсть ветра занижена на 2-4 м/с пo сравнению с oткрытым местoм. Скoрoсть ветра над акватoриями крупных рек и oзёр, а также на вершинах хoлмoв на 2-5 м/с выше, чем в oбычных услoвиях.
Атмoсфернoе давление в разных тoчках местнoсти мoжет значительнo oтличаться oт давления на метеoстанции, в зависимoсти oт услoвий рельефа (при пoдъёме на 10 м давление пoнижается примернo на 1 мм рт.ст.).